Notices

What's New in latest Release from April 7th, 2021:

- Updated Glossary, including Speed of Maximum Gust, and Total Hourly Precipitation

- Updated national and regional climate services offices contacts and prices information

- Addition of station inventory lists for 1981-2010, 1971-2000, and 1961-1990 Normals.

If you haven't already, please take our survey and provide feedback about our website: https://eccc.sondage-survey.ca/f/LanguageSelection.aspx?s=442ca660-fcf1-47c0-95a9-59707d6fd709

Hourly Data Report for January 05, 2021

SHEARWATER RCS
NOVA SCOTIA
Current Station Operator: ECCC - MSC

44°37'47.000" N
63°30'48.000" W
24.00 m
8205092
71264
AAW

Download Data

Hourly Data (January 2021)
Hourly Data Report for January 5, 2021
TIME
LST
Temp Definition
°C
Dew Point Definition
°C
Rel Hum Definition
%
Precip. Amount Definition
mm

Wind Dir Definition
10's deg

Wind Spd Definition
km/h
Visibility Definition
km
Stn Press Definition
kPa
Hmdx Definition


Wind Chill Definition


Weather Definition


00:00 1.6 0.2 91 0.0 5 28   100.78     LegendNANA
01:00 1.4 0.2 92 0.0 5 26   100.78     LegendNANA
02:00 1.2 0.1 92 0.0 4 25   100.78     LegendNANA
03:00 1.3 0.1 92 0.0 3 22   100.81     LegendNANA
04:00 1.2 0.2 93 0.0 4 18   100.82     LegendNANA
05:00 1.4 0.1 91 0.0 3 21   100.77     LegendNANA
06:00 1.1 0.0 92 0.0 4 17   100.80     LegendNANA
07:00 1.4 -0.4 88 0.0 4 22   100.81     LegendNANA
08:00 1.5 -0.5 86 0.0 4 19   100.83     LegendNANA
09:00 1.8 -0.4 85 0.0 5 26   100.84     LegendNANA
10:00 1.9 0.0 87 0.0 4 25   100.82     LegendNANA
11:00 2.5 -0.2 82 0.0 5 30   100.76     LegendNANA
12:00 2.3 -0.3 83 0.0 5 25   100.71     LegendNANA
13:00 2.5 -0.2 83 0.0 3 18   100.61     LegendNANA
14:00 2.3 -0.2 83 0.0 3 19   100.55     LegendNANA
15:00 2.1 -0.7 82 0.0 3 20   100.55     LegendNANA
16:00 1.6 -0.8 84 0.0 3 20   100.55     LegendNANA
17:00 1.5 -1.4 81 0.0 3 22   100.53     LegendNANA
18:00 1.2 -1.6 81 0.0 3 25   100.49     LegendNANA
19:00 1.1 -1.9 80 0.0 3 20   100.52     LegendNANA
20:00 1.0 -1.9 81 0.0 3 23   100.45     LegendNANA
21:00 0.7 -2.2 81 0.0 2 23   100.37     LegendNANA
22:00 0.7 -2.4 80 0.0 2 25   100.28     LegendNANA
23:00 0.5 -2.3 81 0.0 1 25   100.20     LegendNANA

Notes on Data Quality.

Legend

  • E = Estimated
  • M = Missing
  • NA = Not Available*
  • [empty] = Indicates an unobserved value
Date modified: